星链-34805 (STARLINK-34805)

导读

STARLINK-34805是美国于2025年7月31日发射的星链系列卫星,隶属于太空探索技术公司SpaceX的星链星座项目。星链星座旨在构建全球卫星互联网,该卫星将为全球偏远地区、海洋空域等提供低延迟、高速率的宽带互联服务,补充星链网络的覆盖范围与通信容量,推进全球互联网普及进程。

基本信息
目录编号:
65071
目录名称:
STARLINK-34805
国际标识:
2025-165R
轨道中心:
EARTH
卫星名称:
星链-34805
卫星全名:
星链-34805 (STARLINK-34805)
卫星状态:
在轨 (已飞行408 天)
发射日期:
2025-07-31 UTC
国别 :
美国 (US)
星等 :
--
该卫星已列入 空间交会检测服务 Space Conjunction Data Service (SCDS) ,当前飞行风险评估等级: 无高风险
轨道信息
数据来源 国际轨道数据
星历时间: 2026-09-12T14:00:02+0800
10小时前
查看轨道信息
半长轴: 6892.76km
偏心率: 0.0000655
轨道倾角: 97.283°
近地点辐角 210.896°
升交点赤经 326.572°
平近点角 64.679°
近地点: 514.171km
远地点: 515.075km
周期: 94.918分钟
每日圈数: 15.170961
详细信息
固有亮度:
5
最大亮度:
2.5
卫星平台:
Starlink V1.0
覆盖范围:
全球
运营商:
太空探索技术公司
运营商所在国:
美国
制造商(研发单位):
太空探索技术公司
制造商所在国:
美国
使用方式:
暂无
卫星简介
Starlink 计划是 SpaceX 推出的全球卫星互联网项目,通过发射低轨道卫星,为全球尤其是偏远地区提供高速、低延迟的互联网服务。自 2019 年起,Starlink 已部署数千颗卫星,旨在缩小全球数字鸿沟,推动互联网普及。该项目还为军事、航空等行业提供通信支持,带来广泛经济效益。
2D轨道图
3D轨道图
轨道高度分析图
轨道倾角分析图
轨道综合分析图
查看轨道综合分析图
交会数据列表
事件ID 空间交会对象 最接近时刻(TCA) 交会距离 交会风险概率(CRP) 交会风险指数(CRI) 操作
CDM_260915-012205-300806-507121
2026-09-15T
01:22:29+0000
0.805 km
远距离
3.067506E-5 中风险 0.65
CDM_260914-053105-808406-507121
2026-09-14T
05:31:03+0000
1.014 km
极远距离
2.391891E-5 中风险 0.63
CDM_260914-030905-808406-507121
2026-09-14T
03:09:41+0000
1.092 km
极远距离
1.853527E-5 中风险 0.6
CDM_260913-101104-839806-507121
2026-09-13T
10:11:43+0000
1.556 km
极远距离
5.60846E-6 低风险 0.5
CDM_260914-123605-601406-507121
2026-09-14T
12:36:15+0000
1.574 km
极远距离
4.774456E-6 低风险 0.49
CDM_260914-195605-391906-507121
2026-09-14T
19:56:21+0000
1.956 km
极远距离
2.992853E-6 低风险 0.45
CDM_260914-142005-298706-507121
2026-09-14T
14:20:06+0000
1.922 km
极远距离
1.754417E-6 低风险 0.4
CDM_260915-051105-111006-507121
2026-09-15T
05:11:46+0000
2.607 km
极远距离
1.631469E-6 低风险 0.39
CDM_260914-050505-654806-507121
2026-09-14T
05:05:18+0000
2.558 km
极远距离
1.432253E-6 低风险 0.38
CDM_260914-063905-654806-507121
2026-09-14T
06:39:33+0000
2.570 km
极远距离
1.423113E-6 低风险 0.38
与全量物体交会距离演化趋势
与全量物体交会风险概率演化趋势